Starlink 35500

operational
NORAD ID: 66092 Int'l Des: 2025-236 Owner: SPXS Country: US Constellation: starlink
NOTLE

About Starlink 35500

Description loading...

Live Position

Loading 3D Globe...

Upcoming Passes

Altitude History

Altitude vs Time

uPlot chart will show altitude changes over time

Two-Line Element Set

1 66092C 25236H 25293.06715278 .00525220 00000+0 80593-3 0 2938
2 66092 53.1611 48.3346 0008610 263.5580 268.6936 16.03002801 16
Epoch: Oct 20, 2025 • Age: 14 hours

Current Status

Altitude 265.2 km
Velocity 7.75 km/s
Sub-Earth Point -1.41°S, 6.77°W
Launch Date Oct 19, 2025
Age 1 days
Type internet

Technical Details

Classification Payload
Mass 575.00 kg
Dry Mass 530.00 kg
Total Mass 575.00 kg
Length 0.30 m
Diameter 4.10 m
Span 29.00 m
Shape Box + pan
Manufacturer SPXS
Bus Type Starlink V2MO
Phase Status In Orbit
Owner/State SPXS/US

Large Constellations

Loading constellations...